Weather History for KHYX - June, 2013

Change the Weather History Date:

Friday, June 21, 2013

  Actual Average (KMBS) Record (KMBS)
Temperature  
Mean Temperature 78 °F 69 °F  
Max Temperature 86 °F 80 °F 92 °F (1998)
Min Temperature 71 °F 58 °F 51 °F (2003)
Degree Days  
Heating Degree Days 0    
Month to date heating degree days  
Since 1 June heating degree days  
Since 1 July heating degree days  
Cooling Degree Days 14    
Month to date cooling degree days  
Year to date cooling degree days  
Since 1 June cooling degree days  
Growing Degree Days 28 (Base 50)    
Moisture  
Dew Point 60 °F    
Average Humidity 50    
Maximum Humidity 69    
Minimum Humidity 40    
Precipitation  
Precipitation 0.00 in 0.10 in 1.77 in (2011)
Month to date precipitation 2.08  
Year to date precipitation 13.73  
Snow  
Snow 0.00 in - - ()
Month to date snowfall  
Since 1 June snowfall  
Since 1 July snowfall  
Snow Depth -    
Sea Level Pressure  
Sea Level Pressure 30.07 in    
Wind  
Wind Speed 9 mph (South)    
Max Wind Speed 15 mph    
Max Gust Speed 21 mph    
Visibility 10 miles    
Events      
T = Trace of Precipitation, MM = Missing Value Source: NWS Daily Summary

Daily Weather History Graph

Daily Weather History Graph

Search for Another Location

Airport or City:

Trip Planner

Search our weather history database for the weather conditions in past years. The results will help you decide how hot, cold, wet, or windy it might be!

Date:

Astronomy

Jun. 21, 2013 Rise Set
Actual Time 5:54 AM EDT 9:19 PM EDT
Civil Twilight 5:19 AM EDT 9:55 PM EDT
Nautical Twilight 4:32 AM EDT 10:42 PM EDT
Astronomical Twilight 3:33 AM EDT 11:41 PM EDT
Moon 7:27 PM EDT (6/21) 4:12 AM EDT (6/21)
Length of Visible Light 16h 36m
Length of Day
15h 25m
Waxing Gibbous, 95% of the Moon is Illuminated
Jun 21
Waxing Gibbous
Jun 23
Full
Jun 30
Last Quarter
Jul 8
New
Jul 15
First Quarter

Hourly Weather History & Observations

Time (EDT) Temp. Heat Index Dew Point Humidity Pressure Visibility Wind Dir Wind Speed Gust Speed Precip Events Conditions
12:43 PM 82.4 °F 83.4 °F 62.6 °F 51% 30.14 in 10.0 mi SSW 8.1 mph - N/A   Unknown
12:53 PM 82.4 °F 83.4 °F 62.6 °F 51% 30.14 in 10.0 mi SSW 5.8 mph - N/A   Clear
1:10 PM 82.4 °F 82.9 °F 60.8 °F 48% 30.14 in 10.0 mi WSW 5.8 mph - N/A   Clear
1:32 PM 82.4 °F 83.4 °F 62.6 °F 51% 30.14 in 10.0 mi South 9.2 mph - N/A   Scattered Clouds
1:51 PM 82.4 °F 83.9 °F 64.4 °F 54% 30.14 in 10.0 mi SSW 10.4 mph - N/A   Scattered Clouds
2:13 PM 82.4 °F 83.9 °F 64.4 °F 54% 30.14 in 10.0 mi SSW 6.9 mph - N/A   Scattered Clouds
2:25 PM 82.4 °F 83.9 °F 64.4 °F 54% 30.13 in 10.0 mi South 9.2 mph - N/A   Scattered Clouds
2:47 PM 84.2 °F 84.4 °F 60.8 °F 45% 30.13 in 10.0 mi SSW 10.4 mph - N/A   Scattered Clouds
3:09 PM 84.2 °F 84.4 °F 60.8 °F 45% 30.13 in 10.0 mi SSW 10.4 mph - N/A   Scattered Clouds
3:33 PM 84.2 °F 85.0 °F 62.6 °F 48% 30.11 in 10.0 mi South 8.1 mph - N/A   Mostly Cloudy
3:54 PM 84.2 °F 84.4 °F 60.8 °F 45% 30.10 in 10.0 mi SSW 11.5 mph - N/A   Mostly Cloudy
4:14 PM 84.2 °F 84.4 °F 60.8 °F 45% 30.09 in 10.0 mi South 12.7 mph - N/A   Scattered Clouds
4:34 PM 84.2 °F 84.4 °F 60.8 °F 45% 30.08 in 10.0 mi South 11.5 mph 16.1 mph N/A   Scattered Clouds
4:54 PM 84.2 °F 84.4 °F 60.8 °F 45% 30.07 in 10.0 mi South 11.5 mph - N/A   Clear
5:14 PM 84.2 °F 84.4 °F 60.8 °F 45% 30.06 in 10.0 mi South 12.7 mph - N/A   Clear
5:34 PM 86.0 °F 85.4 °F 59.0 °F 40% 30.05 in 10.0 mi South 13.8 mph - N/A   Clear
5:54 PM 86.0 °F 86.1 °F 60.8 °F 43% 30.04 in 10.0 mi South 15.0 mph - N/A   Clear
6:14 PM 84.2 °F 83.8 °F 59.0 °F 42% 30.04 in 10.0 mi South 10.4 mph 18.4 mph N/A   Clear
6:35 PM 82.4 °F 82.5 °F 59.0 °F 45% 30.03 in 10.0 mi South 11.5 mph 19.6 mph N/A   Clear
6:55 PM 82.4 °F 82.5 °F 59.0 °F 45% 30.03 in 10.0 mi South 11.5 mph 20.7 mph N/A   Clear
7:15 PM 84.2 °F 84.4 °F 60.8 °F 45% 30.03 in 10.0 mi South 10.4 mph 18.4 mph N/A   Clear
7:35 PM 82.4 °F 82.5 °F 59.0 °F 45% 30.04 in 10.0 mi South 9.2 mph - N/A   Clear
7:50 PM 82.4 °F 82.5 °F 59.0 °F 45% 30.03 in 10.0 mi South 11.5 mph 18.4 mph N/A   Clear
8:10 PM 82.4 °F 82.5 °F 59.0 °F 45% 30.03 in 10.0 mi South 9.2 mph 16.1 mph N/A   Clear
8:30 PM 80.6 °F 81.1 °F 59.0 °F 48% 30.03 in 10.0 mi South 8.1 mph - N/A   Clear
8:51 PM 80.6 °F 81.1 °F 59.0 °F 48% 30.03 in 10.0 mi South 6.9 mph - N/A   Clear
9:11 PM 78.8 °F - 59.0 °F 51% 30.04 in 10.0 mi South 6.9 mph - N/A   Clear
9:31 PM 77.0 °F - 59.0 °F 54% 30.04 in 10.0 mi South 8.1 mph - N/A   Clear
9:51 PM 77.0 °F - 59.0 °F 54% 30.05 in 10.0 mi South 5.8 mph - N/A   Clear
10:11 PM 75.2 °F - 59.0 °F 57% 30.06 in 10.0 mi South 4.6 mph - N/A   Clear
10:31 PM 73.4 °F - 59.0 °F 61% 30.06 in 10.0 mi South 4.6 mph - N/A   Clear
10:51 PM 71.6 °F - 60.8 °F 69% 30.06 in 10.0 mi South 5.8 mph - N/A   Scattered Clouds
11:11 PM 71.6 °F - 59.0 °F 64% 30.06 in 10.0 mi South 5.8 mph - N/A   Scattered Clouds
11:31 PM 71.6 °F - 59.0 °F 64% 30.06 in 10.0 mi South 5.8 mph - N/A   Clear
11:51 PM 71.6 °F - 59.0 °F 64% 30.05 in 10.0 mi South 6.9 mph - N/A   Clear